#timestamp,LO_Frequency,Hit,StdDev 
1620162015.3,286047004.1,N
1620162035.1,286047001.5,N
1620162055.8,286047001.4,N
1620162075.7,286047004.4,N
1620162095.5,286047002.2,N
1620162115.3,286047002.0,N
1620162135.2,286047002.6,N
1620162155.0,286047004.2,N
1620162155.9,286047004.2,N
1620162175.7,286047001.4,N
1620162195.6,286047004.1,N
1620162215.4,286047003.6,N
1620162235.2,286047003.0,N
1620162255.1,286047003.2,N
1620162256.0,286047003.2,N
1620162275.8,286047005.5,Y
1620162295.6,286047003.8,P
1620162315.5,286047003.4,P
1620162335.3,286047011.9,P
1620162355.1,286047003.7,N
1620162375.9,286047003.9,N
1620162395.7,286047006.0,N
1620162415.5,286047003.4,N
1620162435.4,286047005.6,N
1620162455.2,286047005.3,N
1620162475.0,286047006.8,N
1620162475.9,286047006.8,N
1620162495.8,286047006.5,N
1620162515.6,286047008.4,Y
1620162535.4,286047002.5,P
1620162555.3,286047002.8,N
1620162575.1,286047002.7,N
1620162595.8,286047000.1,N
1620162615.7,286047002.6,N
1620162635.5,286047002.4,N
1620162655.3,286047000.3,N
1620162675.2,286047002.2,N
1620162695.0,286046999.8,N
1620162695.9,286046999.8,N
1620162715.7,286047002.6,N
1620162735.6,286047002.5,N
1620162755.4,286047002.2,N
1620162775.2,286047001.7,N
1620162795.1,286047004.3,Y
1620162796.0,286047004.3,P
1620162815.8,286047002.3,N
1620162835.6,286046999.7,N
1620162855.5,286046998.1,N
1620162875.3,286047002.4,N
1620162895.1,286047000.2,N
1620162915.9,286046999.7,N
1620162935.7,286047001.5,N
1620162955.5,286047002.7,N
1620162975.4,286047001.7,N
1620162995.2,286047001.8,N
1620163015.0,286047004.3,N
1620163015.9,286047004.3,N
1620163035.8,286047003.8,N
1620163055.6,286047001.8,N
1620163075.4,286047001.7,N
1620163095.3,286047002.6,N
1620163115.1,286047001.3,N
1620163116.0,286047001.3,N
1620163135.8,286047005.8,Y
1620163155.7,286047001.3,P
1620163175.5,286047002.1,P
1620163195.3,286047004.1,P
1620163215.2,286047006.0,Y
1620163235.0,286047002.7,P
1620163235.9,286047002.7,P
1620163255.7,286047000.6,P
1620163275.6,286046998.5,N
1620163295.4,286046998.5,N
1620163315.2,286047000.3,N
1620163335.1,286047000.4,N
1620163336.0,286047000.4,N
1620163355.8,286047000.9,N
1620163375.6,286047000.7,N
1620163395.5,286047000.1,N
1620163415.3,286047001.5,N
1620163435.1,286047004.3,Y
1620163455.9,286047000.1,P
1620163475.7,286047000.3,N
1620163495.5,286046999.8,N
1620163515.4,286047000.2,N
1620163535.2,286047000.3,N
1620163555.0,286046999.7,N
1620163555.9,286046999.7,N
1620163575.8,286047002.8,Y
1620163595.6,286047002.1,P
1620163615.4,286047002.8,N
1620163635.3,286047001.9,N
1620163655.1,286047002.2,N
1620163675.8,286047004.3,Y
1620163695.7,286046999.0,P
1620163715.5,286046999.3,N
1620163735.3,286046997.9,N
1620163755.2,286046996.7,N
1620163775.0,286046999.1,N
1620163775.9,286046999.1,N
1620163795.7,286046999.5,N
1620163815.6,286046998.2,N
1620163835.4,286046998.5,N
1620163855.2,286046998.3,N
1620163875.1,286046999.0,N
1620163876.0,286046999.0,N
1620163895.8,286046998.6,N
1620163915.6,286046999.2,N
1620163935.5,286046998.9,N
1620163955.3,286046998.7,N
1620163975.1,286046997.0,Y
1620163995.9,286047000.9,P
1620164015.7,286046999.5,N
1620164035.5,286046997.2,P
1620164055.4,286046997.5,N
1620164075.2,286046994.9,Y
1620164095.0,286046997.2,P
1620164095.9,286046997.2,P
1620164115.8,286046996.5,P
1620164135.6,286046999.3,N
1620164155.4,286046996.9,N
1620164175.3,286046998.2,N
1620164195.1,286046998.1,N
1620164215.8,286046996.7,Y
1620164235.7,286047001.1,P
1620164255.5,286046998.5,N
1620164275.3,286046998.2,N
1620164295.2,286047001.1,N
1620164315.0,286046998.3,N
1620164315.9,286046998.3,N
1620164335.7,286046999.9,N
1620164355.6,286047000.1,N
1620164375.4,286047002.5,N
1620164395.2,286047000.4,N
1620164415.1,286047000.6,N
1620164416.0,286047000.6,N
1620164435.8,286047000.7,N
1620164455.6,286046998.6,N
1620164475.5,286046999.4,N
1620164495.3,286046998.1,N
1620164515.1,286047000.5,N
1620164535.9,286047000.1,N
1620164555.7,286047000.1,N
1620164575.5,286047001.2,N
1620164595.4,286047001.2,N
1620164615.2,286046998.6,N
1620164635.0,286047000.3,N
1620164635.9,286047000.3,N
1620164655.8,286047002.1,N
1620164675.6,286047002.4,N
1620164695.4,286047000.0,N
1620164715.3,286047001.1,N
1620164735.1,286046999.5,N
1620164736.0,286046999.5,N
1620164755.8,286046999.5,N
1620164775.7,286046998.2,N
1620164795.5,286046999.3,N
1620164815.3,286046996.6,N
1620164835.2,286046999.3,N
1620164855.9,286046997.4,N
1620164875.7,286046996.6,N
1620164895.6,286046998.9,N
1620164915.4,286046997.1,N
1620164935.2,286046995.5,Y
1620164955.1,286046997.6,P
1620164956.0,286046997.6,N
1620164975.8,286046999.2,N
1620164995.6,286046999.4,N
1620165015.5,286046998.7,N
1620165035.3,286047001.0,N
1620165055.1,286046999.1,N
1620165075.9,286046996.9,Y
1620165095.7,286046997.6,P
1620165115.5,286046997.4,P
1620165135.4,286046997.3,P
1620165155.2,286046998.0,N
1620165175.0,286046995.1,Y
1620165175.9,286046995.1,P
1620165195.8,286046998.5,N
1620165215.6,286046998.7,N
1620165235.4,286047001.1,N
1620165255.3,286047001.2,N
1620165275.1,286047000.7,N
1620165276.0,286047000.7,N
1620165295.8,286047000.4,N
1620165315.7,286047000.5,N
1620165335.5,286047000.4,N
1620165355.3,286047000.7,N
1620165375.2,286047001.0,N
1620165395.9,286046998.6,N
1620165415.7,286047000.4,N
1620165435.6,286047001.1,N
1620165455.4,286046998.7,N
1620165475.2,286047000.7,N
1620165495.1,286046998.6,N
1620165526.0,286046998.7,E
1620165535.9,286046998.1,N
1620165555.7,286046998.8,P
1620165575.6,286046998.3,P
1620165595.4,286046998.6,Y
